Home > Weather > Cambridge > Past weeks

Flag for U.S.A. Weather for the Past 2 Weeks in Cambridge, Massachusetts, U.S.A.

Now
20 °F

Mostly cloudy.


Feels Like: 9 °F
Forecast: 20 / 29 °F
Wind: 9 mph from Northwest

Location: Logan International Airport

Current Time: Feb 9, 2016 at 7:02:08 AM

Latest Report: Feb 9, 2016 at 5:54 AM


Visibility: 10 mi

Pressure: 29.73 "Hg

Humidity: 82%

Dew point: 15 °F

Location of CambridgeLocation

Historic Weather in Cambridge — Graph

°F

Cambridge Temperature Yesterday

Maximum temperature yesterday: 38 °F (at 12:54 AM)
Minimum temperature yesterday: 18 °F (at 10:54 AM)
Average temperature yesterday: 24 °F

High & Low Weather Summary for the Past Weeks

 TemperatureHumidityPressure
High64 °F (Feb 1, 12:54 PM)100% (Feb 5, 12:54 PM)30.40 "Hg (Feb 5, 12:54 PM)
Low18 °F (Feb 8, 10:54 AM)31% (Feb 1, 3:54 PM)29.37 "Hg (Jan 29, 12:54 PM)
Average38 °F67%29.98 "Hg
* Reported Jan 25 5:54 AM — Feb 9 5:03 AM, Cambridge, Weather by CustomWeather, © 2016

Note: Actual official high and low records may vary slightly from our data, if they occured in-between our weather recording intervals... More about our weather records

Advertising

Cambridge Weather History for the Previous 24 Hours

 ConditionsComfort  
Time TempWeatherWind HumidityBarometerVisibility
5:03 AM
Tue, Feb 9
19 °FMostly cloudy.12 mph86%29.74 "Hg10 mi
4:02 AM19 °FLight snow. Mostly cloudy.9 mph86%29.74 "Hg9 mi
2:54 AM20 °FLight snow. Overcast.10 mph82%29.76 "Hg9 mi
1:54 AM20 °FLight snow. Mostly cloudy.9 mph85%29.77 "Hg7 mi
12:54 AM20 °FLight snow. Overcast.9 mph85%29.77 "Hg7 mi
11:54 PM
Mon, Feb 8
21 °FLight snow. Overcast.10 mph81%29.79 "Hg4 mi
10:54 PM21 °FLight snow. Overcast.12 mph81%29.79 "Hg2 mi
9:54 PM20 °FLight snow. Ice fog.17 mph85%29.79 "Hg2 mi
8:54 PM20 °FLight snow. Ice fog.13 mph85%29.80 "Hg2 mi
7:54 PM20 °FLight snow. Ice fog.14 mph85%29.79 "Hg1 mi
6:54 PM20 °FLight snow. Ice fog.14 mph85%29.78 "Hg1 mi
5:54 PM21 °FLight snow. Ice fog.17 mph81%29.76 "Hg2 mi
4:54 PM21 °FSnow. Ice fog.15 mph78%29.73 "Hg1 mi
3:54 PM20 °FSnow. Mostly cloudy.18 mph82%29.72 "Hg1 mi
2:54 PM20 °FSnow. Mostly cloudy.16 mph82%29.72 "Hg1 mi
1:54 PM20 °FSnow. Cloudy.20 mph82%29.72 "Hg1 mi
12:54 PM19 °FSnow. Ice fog.21 mph85%29.75 "Hg0 mi
11:54 AM18 °FSnow. Ice fog.20 mph84%29.80 "Hg1 mi
10:54 AM18 °FSnow. Ice fog.21 mph84%29.85 "Hg1 mi
9:54 AM20 °FSnow. Ice fog.23 mph85%29.86 "Hg1 mi
9:02 AM25 °FLight snow. Overcast.32 mph80%29.86 "Hg2 mi
8:54 AM25 °FLight snow. Overcast.28 mph78%29.85 "Hg3 mi
7:54 AM28 °FLight snow. Overcast.33 mph75%29.86 "Hg5 mi
Weather by CustomWeather, © 2016

See weather overviewHow to use our weather pages